Waterloo Regional Airport Waterloo US
ICAO: KALO
IATA: ALO
Category: Medium
Scheduled Services: Yes

Elevation: 873 ft
TransAlt. 18000 ft.

Airport Communications:
APP/DEP:118.9
ATIS:120.65
CTAF:118.1
GND:121.9
ARNG OPS:36.7
FORT DODGE RDO:122.05
TWR:118.1
UNICOM:122.95

KALO Zoom In..

Runways:

(A) RW 06 length 5400 ft width 130 ft
---- / hdg 65

(B) RW 12 length 8399 ft width 150 ft
ILS 111.70 / hdg 125

(C) RW 18 length 6003 ft width 150 ft
---- / hdg 185

(D) RW 24 length 5400 ft width 130 ft
---- / hdg 245

(E) RW 30 length 8399 ft width 150 ft
---- / hdg 305

(F) RW 36 length 6003 ft width 150 ft
---- / hdg 5

Location; KALO
Day. 03 / Time. 10.54 Zulu
* Altimeter: 30.11
* Temperature: 11° c. 51.8°f.
* Wind from: 340° Speed 06 kn.
Dewpoint: 09° c.
Visibility: 10 Statute Miles.
Clouds: Clear (automated report).

KALO 031054Z AUTO 34006KT 10SM CLR 11/09 A3011 RMK AO2 SLP194 T01110089

Going to: --> -->


Wind From 340°
Speed 06 kn.

 
 
jpsmedia worldairports.se 2020   terms of use